Miscellaneous Local Product
Issued by NWS North Platte, NE

Home | Current Version | Previous Version | Text Only | Print | Product List | Glossary On
Versions: 1 2 3 4 5 6 7 8 9 10 11 12 13 14 15 16 17 18 19 20 21 22 23 24 25 26 27 28 29 30 31 32 33 34 35 36 37 38 39 40 41 42 43 44 45 46 47 48 49 50
294
AXUS43 KLBF 291710
MISLBF


WESTERN AND NORTH CENTRAL NEBRASKA HOURLY WEATHER ROUNDUP
NATIONAL WEATHER SERVICE NORTH PLATTE NE
1200 PM CDT THU SEP 29 2016

NOTE: "FAIR" INDICATES FEW OR NO CLOUDS BELOW 12,000 FEET WITH NO
SIGNIFICANT WEATHER AND/OR OBSTRUCTIONS TO VISIBILITY.

NOTE: STATIONS NOT REPORTING VARIABLES SUCH AS SKY/WEATHER OR
PRESSURE ARE PROVIDED BY RAWS AND APRS NETWORKS AND ARE NOT UNDER
NATIONAL WEATHER SERVICE QUALITY CONTROL.

...OBSERVATIONS IN AND NEAR THE EASTERN PANHANDLE OF NEBRASKA...

CITY           SKY/WX    TMP DP  RH WIND       PRES   REMARKS
PINE RIDGE     SUNNY     73  44  35 S14       30.33F
CHADRON        SUNNY     72  44  36 S13       30.30F
ALLIANCE       SUNNY     68  43  40 S14       30.35F
SIDNEY         SUNNY     69  44  40 S17       30.38F
CRESCENT LAKE    N/A     66  42  42 S9          N/A
$$

...OBSERVATIONS IN NORTHERN NEBRASKA AND FAR SOUTHERN SOUTH DAKOTA...

CITY           SKY/WX    TMP DP  RH WIND       PRES   REMARKS
WINNER         FAIR      66  45  46 S16       30.41F
VALENTINE      SUNNY     65  42  43 SE14      30.40F
THEDFORD       SUNNY     66  44  44 S12       30.42F
AINSWORTH      SUNNY     64  46  53 S12       30.42F
O`NEILL        SUNNY     62  45  54 S3        30.45F
ORD            SUNNY     61  44  53 CALM      30.44F
BROKEN BOW     SUNNY     60  44  55 VRB6      30.44F
VALENTINE NWR    N/A     62  44  51 S10         N/A
BUTTE            N/A     59  47  63 SE6G13      N/A
HALSEY           N/A     63  44  49 S6G14       N/A
EWING            N/A     62  50  65 S3          N/A
$$

...OBSERVATIONS IN SOUTHWEST NEBRASKA AND FAR NORTHEAST COLORADO...

CITY           SKY/WX    TMP DP  RH WIND       PRES   REMARKS
HOLYOKE        FAIR      72  39  30 S12G17    30.39F HAZE
IMPERIAL       SUNNY     66  42  41 SE15G22   30.40F
OGALLALA       SUNNY     70  40  34 S8        30.39F
NORTH PLATTE   SUNNY     64  42  44 S8        30.42F
MCCOOK         SUNNY     63  43  48 SE10      30.43F
LEXINGTON      SUNNY     63  45  52 SE7       30.44F
STAPLETON        N/A     64  46  52 CALM        N/A
GOTHENBURG       N/A     59  44  58 SE6         N/A
CALLAWAY         N/A     59  48  67 S9          N/A
$$

...OBSERVATIONS IN CENTRAL LINCOLN COUNTY AREA...

CITY           SKY/WX    TMP DP  RH WIND       PRES   REMARKS
N.P. AIRPORT   SUNNY     64  42  44 S8        30.42F
N.P. DOWNTOWN    N/A     65  45  49 S3          N/A
N.P. SOUTHEAST   N/A     64  44  48 S6          N/A
N.P. HILLCREST   N/A     64  45  50 S8          N/A
$$

...SOME OBSERVATIONS FROM AROUND THE REGION...

CITY           SKY/WX    TMP DP  RH WIND       PRES   REMARKS
DENVER         MOSUNNY   70  38  31 CALM      30.36F
LARAMIE        SUNNY     68  32  26 CALM      30.44S
CHEYENNE       SUNNY     72  35  25 S8        30.38F
SCOTTSBLUFF    SUNNY     66  45  46 E14       30.33F
RAPID CITY     SUNNY     68  41  37 S18       30.29F
BISMARCK       SUNNY     62  47  57 S14       30.38F
PIERRE         LGT RAIN  64  45  49 SE20      30.37F
SIOUX FALLS    MOSUNNY   62  48  60 VRB6      30.47F
OMAHA          MOSUNNY   65  52  62 NW10      30.44F
GRAND ISLAND   MOSUNNY   60  45  57 VRB3      30.47F
KANSAS CITY    MOSUNNY   66  49  54 N10       30.38F
WICHITA        MOSUNNY   66  49  54 VRB7      30.42F
OKLAHOMA CITY  MOSUNNY   66  48  52 NE15      30.38S
DALLAS         MOSUNNY   73  49  42 NE7       30.30S
AMARILLO       SUNNY     66  44  45 SE9       30.45F
DODGE CITY     SUNNY     64  43  46 E6        30.44F
HAYS           SUNNY     63  41  45 NE5       30.44F
GOODLAND       LGT RAIN  66  42  41 SE15      30.40F
$$




USA.gov is the U.S. government's official web portal to all federal, state and local government web resources and services.